This is the latest recevied weather packets stored in our database for station/object KC3SOZ. If no packets are shown the sender has not sent any weather packets the latest 10 day(s).
| Time | Temp. | Humidity | Pressure | Rain* | Wind** | Luminosity | Snow |
|---|---|---|---|---|---|---|---|
| 1777558009 | 11.11° C | 89% | 1009.8 hPa | 0 mm | - | 150 W/m² | - |
| 1777557706 | 10.56° C | 89% | 1009.8 hPa | 0 mm | - | 199 W/m² | - |
| 1777557402 | 10.56° C | 90% | 1009.7 hPa | 0 mm | - | 170 W/m² | - |
| 1777557098 | 10.56° C | 90% | 1009.5 hPa | 0 mm | - | 113 W/m² | - |
| 1777556794 | 10.56° C | 89% | 1009.5 hPa | 0 mm | - | 114 W/m² | - |
| 1777556491 | 10.56° C | 90% | 1009.9 hPa | 0 mm | - | 119 W/m² | - |
| 1777556190 | 10.56° C | 92% | 1009.6 hPa | 0 mm | - | 120 W/m² | - |
| 1777555887 | 10.56° C | 93% | 1009.6 hPa | 0 mm | - | 130 W/m² | - |
| 1777555582 | 10.56° C | 92% | 1009.5 hPa | 0 mm | - | 114 W/m² | - |
| 1777555280 | 10.56° C | 92% | 1009.6 hPa | 0 mm | - | 102 W/m² | - |
| 1777554976 | 10.56° C | 93% | 1009.5 hPa | 0 mm | - | 122 W/m² | - |
| 1777554673 | 10.56° C | 92% | 1009.6 hPa | 0 mm | - | 104 W/m² | - |
| 1777554370 | 10.56° C | 92% | 1009.5 hPa | 0 mm | - | 107 W/m² | - |
| 1777554067 | 10.56° C | 93% | 1009.6 hPa | 0 mm | - | 106 W/m² | - |
| 1777553763 | 10.56° C | 93% | 1009.2 hPa | 0 mm | - | 106 W/m² | - |
| 1777553460 | 10.56° C | 93% | 1009.3 hPa | 0 mm | - | 155 W/m² | - |
| 1777553156 | 10.56° C | 94% | 1008.9 hPa | 0 mm | - | 157 W/m² | - |
| 1777552856 | 10.56° C | 95% | 1009.1 hPa | 0 mm | - | 140 W/m² | - |
| 1777552552 | 10.56° C | 95% | 1009.1 hPa | 0 mm | - | 133 W/m² | - |
| 1777552248 | 10.56° C | 96% | 1009.3 hPa | 0 mm | - | 124 W/m² | - |
| 1777551945 | 10° C | 95% | 1009.5 hPa | 0 mm | - | 122 W/m² | - |
| 1777551643 | 10° C | 96% | 1009.3 hPa | 0 mm | - | 122 W/m² | - |
| 1777551340 | 10° C | 96% | 1009.4 hPa | 0 mm | - | 98 W/m² | - |
| 1777551036 | 10° C | 96% | 1009.5 hPa | 0 mm | - | 94 W/m² | - |
| 1777550733 | 10° C | 96% | 1009.7 hPa | 0 mm | - | 104 W/m² | - |
* Rain latest hour (hover to see other rain measurements)
** Current wind speed in m/s (hover to see current wind gust speed)